Погода в Подгоре

Хорватия     43°13′56″N   17°05′20″E
темп.,
°C
ветер,
м/с
пор.,
м/с
влажн.,
%
обл.,
%
осадки,
мм/ч
давл.,
гПа
погр.,
м
17 августа, ср
ср1723:00+23юв11750 0.0 101434
02:00+23св22690 0.0 101430
05:00+22всв22680 0.0 101337
08:00+24всв11640 0.0 101452
11:00+24ююз21590 0.0 1014254
14:00+24юз23640 0.0 1014255
17:00+25з12690 0.0 1013163
20:00+24ссз22700 0.0 101320
18 августа, чт
чт1823:00+25св22650 0.0 101312
02:00+24в22660 0.0 101214
05:00+24в22650 0.0 101215
08:00+25в22610 0.0 101347
11:00+25ююз33600 0.0 1013221
14:00+26юв22551 0.0 1012219
17:00+26вюв33595 0.0 1011148
20:00+26св33573 0.1 101011
19 августа, пт
пт1923:00+26всв44540 0.5 101017
02:00+26всв55540 0.5 100831
05:00+26всв33556 0.0 100816
08:00+27в454773 0.0 1008146
11:00+28ююв7115294 0.0 1008275
14:00+25ююв457951 0.0 1010194
17:00+26ююв34721 0.1 1008312
20:00+25вюв34730 0.2 100831
20 августа, сб
сб2023:00+24св44710 0.0 100928
02:00+23всв33714 0.0 100935
05:00+23св336919 0.0 100935
08:00+24юв117024 0.5 101069
11:00+24юз32697 0.3 1011420
14:00+23юз33768 0.8 1011380
17:00+25зсз45682 0.3 1010219
20:00+25ссз44652 0.3 101037
21 августа, вс
вс2123:00+23ссв55695 0.0 101063
02:00+23ссв67682 0.0 1011101
05:00+22ссв66700 0.0 1010143
08:00+23ссв55650 0.0 1010139
11:00+27с46510 0.0 1010406
14:00+27с10104915 0.0 1009552
17:00+26с912510 0.0 1009354
20:00+24с89620 0.0 1009159